Mount Pleasant, MI

3:28 AM EDT on June 24, 2017 (GMT -0400)
Mount Pleasant Municipal

Weather History for KMOP - October, 2012

Change the Weather History Date:

Wednesday, October 10, 2012

  Actual Average (KAMN) Record (KAMN)
Temperature  
Mean Temperature 40 °F -  
Max Temperature 45 °F 59 °F 85 °F (1949)
Min Temperature 34 °F 39 °F 24 °F (1989)
Degree Days  
Heating Degree Days 26    
Moisture  
Dew Point 33 °F    
Average Humidity 75    
Maximum Humidity 95    
Minimum Humidity 45    
Precipitation  
Precipitation 0.09 in - - ()
Sea Level Pressure  
Sea Level Pressure 29.92 in    
Wind  
Wind Speed 9 mph (WSW)    
Max Wind Speed 18 mph    
Max Gust Speed 29 mph    
Visibility 10 miles    
Events Rain    
Averages and records for this station are not official NWS values.
T = Trace of Precipitation, MM = Missing Value Source: NWS Daily Summary

Daily Weather History Graph

Daily Weather History Graph

Search for Another Location

Airport or City:

Trip Planner

Search our weather history database for the weather conditions in past years. The results will help you decide how hot, cold, wet, or windy it might be!

Date:

Astronomy

Oct. 10, 2012 Rise Set
Actual Time 7:47 AM EDT 7:03 PM EDT
Civil Twilight 7:18 AM EDT 7:31 PM EDT
Nautical Twilight 6:45 AM EDT 8:05 PM EDT
Astronomical Twilight 6:12 AM EDT 8:38 PM EDT
Moon 2:13 AM EDT (10/10) 4:13 PM EDT (10/10)
Length of Visible Light 12h 13m
Length of Day
11h 15m
Waning Crescent, 27% of the Moon is Illuminated
Oct 10
Waning Crescent
Oct 15
New
Oct 21
First Quarter
Oct 29
Full
Nov 6
Last Quarter

Hourly Weather History & Observations

Time (EDT) Temp. Windchill Dew Point Humidity Pressure Visibility Wind Dir Wind Speed Gust Speed Precip Events Conditions
12:15 AM 44.8 °F 39.0 °F 41.9 °F 90% 29.79 in 10.0 mi West 11.5 mph - N/A Rain Light Rain
12:35 AM 43.0 °F 35.7 °F 39.7 °F 88% 29.80 in 7.0 mi WNW 15.0 mph 24.2 mph 0.01 in Rain Rain
12:56 AM 41.9 °F 36.9 °F 38.7 °F 88% 29.80 in 10.0 mi WNW 8.1 mph 17.3 mph 0.03 in Rain Light Rain
1:15 AM 41.4 °F 36.8 °F 38.7 °F 90% 29.80 in 10.0 mi West 6.9 mph - 0.01 in Rain Light Rain
1:35 AM 41.2 °F 37.3 °F 38.7 °F 91% 29.80 in 10.0 mi WNW 5.8 mph - 0.01 in Rain Light Rain
1:55 AM 41.0 °F 37.1 °F 38.5 °F 91% 29.80 in 10.0 mi West 5.8 mph - 0.02 in Rain Light Rain
2:15 AM 41.0 °F 36.4 °F 38.7 °F 91% 29.81 in 10.0 mi West 6.9 mph - 0.01 in Rain Light Rain
2:35 AM 40.1 °F 36.1 °F 37.9 °F 92% 29.81 in 10.0 mi West 5.8 mph - 0.02 in Rain Light Rain
2:55 AM 40.1 °F 36.9 °F 37.6 °F 91% 29.81 in 10.0 mi West 4.6 mph - 0.02 in   Drizzle
3:15 AM 39.9 °F 36.7 °F 38.1 °F 93% 29.81 in 10.0 mi SW 4.6 mph - 0.01 in Rain Light Rain
3:35 AM 39.7 °F 34.3 °F 37.6 °F 92% 29.80 in 10.0 mi WSW 8.1 mph - 0.01 in Rain Light Rain
3:55 AM 39.4 °F 35.2 °F 37.6 °F 93% 29.80 in 10.0 mi SW 5.8 mph - 0.01 in Rain Rain
4:15 AM 39.4 °F 35.2 °F 37.8 °F 94% 29.79 in 10.0 mi SW 5.8 mph - 0.01 in   Overcast
4:35 AM 39.4 °F 34.5 °F 37.6 °F 93% 29.79 in 10.0 mi SW 6.9 mph - 0.01 in   Overcast
4:55 AM 39.2 °F 35.0 °F 37.6 °F 94% 29.80 in 10.0 mi SW 5.8 mph - 0.01 in   Overcast
5:15 AM 39.4 °F 34.5 °F 37.6 °F 93% 29.80 in 10.0 mi SW 6.9 mph - N/A   Overcast
5:35 AM 39.4 °F 35.2 °F 37.6 °F 93% 29.81 in 10.0 mi SW 5.8 mph - N/A   Overcast
5:55 AM 39.2 °F 35.9 °F 37.6 °F 94% 29.81 in 10.0 mi SW 4.6 mph - N/A   Overcast
6:15 AM 38.5 °F 35.0 °F 36.7 °F 93% 29.81 in 10.0 mi WSW 4.6 mph - N/A   Mostly Cloudy
6:35 AM 37.9 °F 33.5 °F 36.5 °F 95% 29.82 in 10.0 mi WSW 5.8 mph - N/A   Clear
6:55 AM 38.8 °F 34.6 °F 37.2 °F 94% 29.83 in 10.0 mi SW 5.8 mph - N/A   Mostly Cloudy
7:15 AM 38.8 °F 33.8 °F 37.4 °F 95% 29.83 in 10.0 mi WSW 6.9 mph - N/A   Overcast
7:35 AM 38.7 °F 33.6 °F 37.0 °F 94% 29.83 in 10.0 mi WSW 6.9 mph - N/A   Overcast
7:55 AM 38.7 °F 35.2 °F 37.2 °F 95% 29.83 in 10.0 mi WSW 4.6 mph - N/A   Mostly Cloudy
8:15 AM 38.8 °F 33.2 °F 37.2 °F 94% 29.84 in 10.0 mi WSW 8.1 mph - N/A   Mostly Cloudy
8:55 AM 39.9 °F 34.5 °F 37.8 °F 92% 29.85 in 10.0 mi WSW 8.1 mph - N/A   Clear
9:35 AM 42.1 °F 35.7 °F 38.3 °F 86% 29.86 in 10.0 mi West 11.5 mph - N/A   Clear
9:55 AM 42.8 °F 36.6 °F 37.9 °F 83% 29.87 in 10.0 mi West 11.5 mph 21.9 mph N/A   Clear
10:15 AM 43.7 °F 36.3 °F 37.8 °F 80% 29.88 in 10.0 mi West 16.1 mph - N/A   Clear
10:35 AM 43.9 °F 38.3 °F 37.2 °F 77% 29.88 in 10.0 mi West 10.4 mph 20.7 mph N/A   Mostly Cloudy
10:55 AM 44.2 °F 37.3 °F 36.1 °F 73% 29.88 in 10.0 mi West 15.0 mph 24.2 mph N/A   Mostly Cloudy
11:15 AM 44.1 °F 37.1 °F 35.8 °F 73% 29.89 in 10.0 mi West 15.0 mph 20.7 mph N/A   Overcast
11:35 AM 43.0 °F 36.8 °F 34.3 °F 72% 29.89 in 10.0 mi West 11.5 mph 18.4 mph N/A   Overcast
11:55 AM 44.1 °F 37.7 °F 34.0 °F 68% 29.89 in 10.0 mi West 12.7 mph 20.7 mph N/A   Overcast
12:15 PM 43.3 °F 36.8 °F 33.8 °F 69% 29.91 in 10.0 mi WNW 12.7 mph 19.6 mph N/A   Overcast
12:55 PM 43.0 °F 35.7 °F 33.3 °F 69% 29.93 in 10.0 mi WNW 15.0 mph 24.2 mph N/A   Overcast
1:15 PM 41.2 °F 33.4 °F 34.2 °F 76% 29.94 in 10.0 mi West 15.0 mph 24.2 mph N/A   Overcast
1:35 PM 40.6 °F 33.4 °F 33.4 °F 75% 29.94 in 10.0 mi West 12.7 mph 21.9 mph N/A Rain Light Rain
1:55 PM 42.1 °F 34.5 °F 32.5 °F 69% 29.93 in 10.0 mi West 15.0 mph 18.4 mph N/A   Overcast
2:15 PM 42.1 °F 33.9 °F 33.6 °F 72% 29.94 in 10.0 mi West 17.3 mph 26.5 mph N/A   Drizzle
2:35 PM 41.9 °F 34.0 °F 33.1 °F 71% 29.94 in 10.0 mi West 16.1 mph 21.9 mph N/A   Overcast
2:55 PM 42.4 °F 36.1 °F 33.6 °F 71% 29.94 in 10.0 mi West 11.5 mph 19.6 mph N/A   Overcast
3:15 PM 43.7 °F 37.3 °F 31.6 °F 63% 29.95 in 10.0 mi West 12.7 mph 20.7 mph N/A   Overcast
3:35 PM 43.9 °F 37.9 °F 26.2 °F 50% 29.96 in 10.0 mi West 11.5 mph 24.2 mph N/A   Overcast
3:56 PM 45.5 °F 38.9 °F 26.1 °F 47% 29.97 in 10.0 mi West 15.0 mph 27.6 mph N/A   Overcast
4:15 PM 44.2 °F 38.0 °F 24.1 °F 45% 29.97 in 10.0 mi West 12.7 mph 28.8 mph N/A   Overcast
4:35 PM 43.2 °F 35.6 °F 23.4 °F 46% 29.98 in 10.0 mi West 16.1 mph 28.8 mph N/A   Overcast
4:56 PM 43.2 °F 36.2 °F 23.7 °F 46% 29.98 in 10.0 mi West 13.8 mph 23.0 mph N/A   Overcast
5:15 PM 43.2 °F 35.0 °F 25.0 °F 49% 29.99 in 10.0 mi West 18.4 mph 24.2 mph N/A   Overcast
5:35 PM 42.6 °F 35.9 °F 25.3 °F 51% 29.99 in 10.0 mi West 12.7 mph 24.2 mph N/A   Overcast
5:55 PM 41.4 °F 35.2 °F 25.7 °F 54% 30.01 in 10.0 mi West 10.4 mph 20.7 mph N/A   Mostly Cloudy
6:15 PM 41.0 °F 33.9 °F 26.2 °F 56% 30.01 in 10.0 mi West 12.7 mph 19.6 mph N/A   Scattered Clouds
6:35 PM 41.0 °F 34.3 °F 26.4 °F 56% 30.03 in 10.0 mi West 11.5 mph 18.4 mph N/A   Overcast
6:55 PM 41.0 °F 33.9 °F 25.7 °F 55% 30.04 in 10.0 mi West 12.7 mph 19.6 mph N/A   Overcast
7:15 PM 41.0 °F 35.2 °F 25.3 °F 54% 30.05 in 10.0 mi West 9.2 mph 17.3 mph N/A   Overcast
7:35 PM 40.1 °F 34.7 °F 25.5 °F 56% 30.05 in 10.0 mi West 8.1 mph - N/A   Mostly Cloudy
7:55 PM 38.7 °F 34.3 °F 25.7 °F 60% 30.06 in 10.0 mi WSW 5.8 mph - N/A   Scattered Clouds
8:15 PM 37.6 °F 33.1 °F 26.2 °F 64% 30.07 in 10.0 mi WSW 5.8 mph - N/A   Mostly Cloudy
8:35 PM 37.4 °F 34.9 °F 26.6 °F 65% 30.07 in 10.0 mi SW 3.5 mph - N/A   Mostly Cloudy
8:55 PM 38.5 °F 35.0 °F 27.5 °F 65% 30.08 in 10.0 mi WSW 4.6 mph - N/A   Overcast
9:15 PM 38.5 °F 35.0 °F 27.1 °F 64% 30.09 in 10.0 mi SW 4.6 mph - N/A   Overcast
9:35 PM 37.2 °F 33.6 °F 26.6 °F 65% 30.09 in 10.0 mi SW 4.6 mph - N/A   Scattered Clouds
9:55 PM 36.1 °F 32.3 °F 27.3 °F 70% 30.09 in 10.0 mi SW 4.6 mph - N/A   Scattered Clouds
10:15 PM 35.8 °F 31.9 °F 27.1 °F 71% 30.10 in 10.0 mi WSW 4.6 mph - N/A   Scattered Clouds
10:36 PM 35.1 °F 31.0 °F 27.0 °F 72% 30.10 in 10.0 mi WSW 4.6 mph - N/A   Clear
10:55 PM 35.1 °F 32.2 °F 27.0 °F 72% 30.09 in 10.0 mi SW 3.5 mph - N/A   Clear
11:15 PM 34.9 °F 32.0 °F 26.8 °F 72% 30.10 in 10.0 mi WSW 3.5 mph - N/A   Clear
11:36 PM 34.5 °F 31.6 °F 26.8 °F 73% 30.11 in 10.0 mi WSW 3.5 mph - N/A   Clear
11:55 PM 34.7 °F 31.8 °F 27.0 °F 73% 30.11 in 10.0 mi WSW 3.5 mph - N/A   Clear